Regional Weather Roundup
Issued by NWS Newport/Morehead, NC

Current Version | Previous Version | Graphics & Text | Print | Product List | Glossary Off
Versions: 1 2 3 4 5 6 7 8 9 10 11 12 13 14 15 16 17 18 19 20 21 22 23 24 25 26 27 28 29 30 31 32 33 34 35 36 37 38 39 40 41 42 43 44 45 46 47 48 49 50

000
ASUS42 KMHX 192110
RWRMHX
WEATHER ROUNDUP FOR EASTERN NORTH CAROLINA
NATIONAL WEATHER SERVICE NEWPORT/MOREHEAD CITY NC
500 PM EDT TUE AUG 19 2014

NOTE: "FAIR" INDICATES FEW OR NO CLOUDS BELOW 12,000 FEET
WITH NO SIGNIFICANT WEATHER AND/OR OBSTRUCTIONS TO VISIBILITY

NCZ015>017-031-032-045>047-102-103-192200-
NORTH COAST

CITY           SKY/WX    TMP DP  RH WIND       PRES   REMARKS
EDENTON        MOSUNNY   83  72  67 NW8       29.81S
ELIZABETH CITY CLOUDY    82  73  74 SW6       29.80S
KITTY HAWK     MOCLDY    81  73  75 W7        29.79S
MANTEO         SUNNY     82  72  69 NW8       29.80S

$$

NCZ045>047-081-094-103-104-192200-
CENTRAL COAST

CITY           SKY/WX    TMP DP  RH WIND       PRES   REMARKS
FRISCO         SUNNY     84  73  69 SW7       29.80S
SWANQUARTER      N/A     86 N/A N/A W10       29.77S

$$

NCZ095-097-098-100-101-192200-
SOUTHERN COAST

CITY           SKY/WX    TMP DP  RH WIND       PRES   REMARKS
BEAUFORT       SUNNY     86  76  71 SW14      29.81R
CEDAR ISLAND     N/A     86 N/A N/A NW10      29.85S
JACKSONVILLE   SUNNY     89  71  55 W3        29.80S
NEWPORT        NOT AVBL
PINEY ISLAND   CLEAR     89  75  63 W14       29.80S
WILMINGTON     MOSUNNY   88  73  61 SE7       29.80F


$$

NCZ011>013-027>030-043-044-078>080-089-090>093-098-192200-
COASTAL PLAIN

CITY           SKY/WX    TMP DP  RH WIND       PRES   REMARKS
AHOSKIE        SUNNY     82  72  71 CALM      29.82R
CLINTON        SUNNY     90  73  57 CALM      29.81S
ELIZABETHTOWN  MOSUNNY   91  70  49 S7        29.80S
GOLDSBORO      MOSUNNY   87  76  69 N5        29.80S
GREENVILLE     SUNNY     86  73  66 N3        29.85R
HAVELOCK       MOSUNNY   86  73  65 N9        29.81S
KENANSVILLE    MOSUNNY   87  70  56 N6        29.82S
KINSTON        MOSUNNY   88  72  58 N7        29.82S
NEW BERN       MOSUNNY   90  72  55 W6        29.81F
RICHLANDS      SUNNY     90  70  51 NW6       29.81S
ROANOKE RAPIDS NOT AVBL
ROCKY MOUNT    MOSUNNY   86  72  62 N5        29.82S
WASHINGTON     MOSUNNY   84  72  67 NW5       29.81S
WHITEVILLE     MOSUNNY   85  71  64 SW13G20   29.82R

$$

AMZ130-135-150-152-154-156-158-170-250-252-270-ANZ085-086-088-633-658-670-192200-
MARINE OBSERVATIONS

STATION/POSITION TIME  TEMP    WIND        PRES    WAVE   SWELL
                       AIR SEA DIR/SP/G            HT/PER HT/PER
                 (UTC) (F)     (DEG/KT/KT) (MB)    (FT/S) (FT/S)
CHESAPEAKE LIGHT 2000   77     340/  2/  3 1009.6
BUOY 44014       2100   78 79  300/  6/  6 1008.9    2/ 6   2/ 6
DUCK             2100   78 78   10/  3/  4 1008.3
2E DUCK          2100                        N/A     1/ 9
OREGON INLET     2100   84 81  300/  8/ 11 1008.8
BUOY 44095       2100      81                N/A     2/ 6
20E OREGON INLET NOT AVBL
HATTERAS CG      2100   85 83  240/  6/  8 1009.5
DIAMOND BUOY     2100   80     250/ 12/ 14 1009.2    4/ 7   2/ 7
CAPE LOOKOUT     2000   83     230/ 13/ 16 1009.3
BEAUFORT LAB     2100   85 81  230/  4/ 11 1008.9
30 SE NEW RIVER  2000   82 82  240/ 16/ 17 1009.1
5 SE WRIGHTSVILL 2000   80 83  220/ 16/ 17   N/A
BUOY 41002       1953   82 81  250/ 14/ 17 1013.6    5/ 7   3/ 7
BUOY 41004       2100   83 83  220/ 19/ 25 1009.8    4/ 6   2/ 8

$$


USA.gov is the U.S. government's official web portal to all federal, state and local government web resources and services.